TimeEST,TemperatureF,Dew PointF,Humidity,Sea Level PressureIn,VisibilityMPH,Wind Direction,Wind SpeedMPH,Gust SpeedMPH,PrecipitationIn,Events,Conditions,WindDirDegrees,DateUTC
12:15 AM,57.2,51.8,82,30.28,10.0,South,5.8,-,N/A,,Overcast,170,2012-12-04 05:15:00
12:35 AM,57.2,51.8,82,30.27,10.0,South,5.8,-,N/A,,Overcast,170,2012-12-04 05:35:00
1:15 AM,57.2,51.8,82,30.26,10.0,South,8.1,-,N/A,,Overcast,180,2012-12-04 06:15:00
1:35 AM,57.2,51.8,82,30.26,10.0,South,6.9,-,N/A,,Scattered Clouds,180,2012-12-04 06:35:00
1:56 AM,57.2,51.8,82,30.27,10.0,South,5.8,-,N/A,,Scattered Clouds,180,2012-12-04 06:56:00
2:15 AM,57.2,51.8,82,30.27,10.0,South,5.8,-,N/A,,Mostly Cloudy,180,2012-12-04 07:15:00
2:35 AM,57.2,51.8,82,30.27,10.0,South,6.9,-,N/A,,Scattered Clouds,180,2012-12-04 07:35:00
2:55 AM,55.4,51.8,88,30.27,10.0,South,6.9,-,N/A,,Clear,180,2012-12-04 07:55:00
3:15 AM,55.4,51.8,88,30.26,10.0,South,5.8,-,N/A,,Mostly Cloudy,180,2012-12-04 08:15:00
3:56 AM,55.4,51.8,88,30.26,10.0,South,5.8,-,N/A,,Mostly Cloudy,180,2012-12-04 08:56:00
4:15 AM,55.4,51.8,88,30.26,10.0,South,5.8,-,N/A,,Overcast,180,2012-12-04 09:15:00
4:35 AM,57.2,51.8,82,30.26,10.0,South,6.9,-,N/A,,Overcast,180,2012-12-04 09:35:00
4:55 AM,57.2,51.8,82,30.26,10.0,South,6.9,-,N/A,,Overcast,170,2012-12-04 09:55:00
5:17 AM,57.2,51.8,82,30.26,10.0,South,6.9,-,N/A,,Overcast,180,2012-12-04 10:17:00
5:35 AM,57.2,51.8,82,30.26,10.0,South,5.8,-,N/A,,Scattered Clouds,170,2012-12-04 10:35:00
5:56 AM,57.2,51.8,82,30.26,10.0,South,8.1,-,N/A,,Scattered Clouds,180,2012-12-04 10:56:00
6:15 AM,55.4,51.8,88,30.27,10.0,South,5.8,-,N/A,,Scattered Clouds,180,2012-12-04 11:15:00
6:35 AM,55.4,51.8,88,30.27,7.0,South,4.6,-,N/A,,Clear,180,2012-12-04 11:35:00
6:55 AM,55.4,51.8,88,30.28,7.0,South,4.6,-,N/A,,Mostly Cloudy,170,2012-12-04 11:55:00
7:16 AM,55.4,51.8,88,30.27,7.0,South,5.8,-,N/A,,Scattered Clouds,180,2012-12-04 12:16:00
7:35 AM,55.4,51.8,88,30.27,7.0,SSE,3.5,-,N/A,,Scattered Clouds,160,2012-12-04 12:35:00
7:55 AM,55.4,51.8,88,30.28,7.0,South,4.6,-,N/A,,Mostly Cloudy,170,2012-12-04 12:55:00
8:15 AM,55.4,51.8,88,30.28,7.0,South,4.6,-,N/A,,Scattered Clouds,190,2012-12-04 13:15:00
8:35 AM,57.2,53.6,88,30.29,10.0,South,3.5,-,N/A,,Scattered Clouds,190,2012-12-04 13:35:00
8:55 AM,60.8,53.6,77,30.29,10.0,SSW,5.8,-,N/A,,Scattered Clouds,210,2012-12-04 13:55:00
9:15 AM,62.6,53.6,72,30.29,10.0,SSW,4.6,-,N/A,,Scattered Clouds,210,2012-12-04 14:15:00
9:36 AM,64.4,53.6,68,30.29,10.0,SW,8.1,-,N/A,,Mostly Cloudy,220,2012-12-04 14:36:00
9:55 AM,66.2,55.4,68,30.29,10.0,SSW,8.1,-,N/A,,Scattered Clouds,210,2012-12-04 14:55:00
10:15 AM,66.2,55.4,68,30.29,10.0,SW,9.2,-,N/A,,Clear,220,2012-12-04 15:15:00
10:36 AM,69.8,55.4,60,30.28,10.0,SW,9.2,-,N/A,,Clear,230,2012-12-04 15:36:00
10:56 AM,69.8,53.6,56,30.27,10.0,SW,5.8,-,N/A,,Clear,230,2012-12-04 15:56:00
11:16 AM,71.6,53.6,53,30.26,10.0,SW,5.8,-,N/A,,Clear,230,2012-12-04 16:16:00
11:36 AM,71.6,53.6,53,30.25,10.0,SW,9.2,-,N/A,,Clear,230,2012-12-04 16:36:00
11:55 AM,73.4,53.6,50,30.24,10.0,SW,5.8,-,N/A,,Clear,230,2012-12-04 16:55:00
12:16 PM,73.4,51.8,47,30.23,10.0,SW,11.5,-,N/A,,Clear,220,2012-12-04 17:16:00
12:37 PM,73.4,51.8,47,30.22,10.0,SW,10.4,-,N/A,,Clear,230,2012-12-04 17:37:00
1:16 PM,75.2,51.8,44,30.20,10.0,SW,12.7,17.3,N/A,,Clear,230,2012-12-04 18:16:00
1:35 PM,73.4,51.8,47,30.19,10.0,SSW,12.7,17.3,N/A,,Clear,210,2012-12-04 18:35:00
1:55 PM,75.2,51.8,44,30.18,10.0,SSW,13.8,17.3,N/A,,Clear,210,2012-12-04 18:55:00
2:15 PM,73.4,51.8,47,30.18,10.0,South,8.1,19.6,N/A,,Clear,170,2012-12-04 19:15:00
2:36 PM,73.4,53.6,50,30.18,10.0,South,5.8,-,N/A,,Clear,180,2012-12-04 19:36:00
2:55 PM,71.6,53.6,53,30.18,10.0,South,6.9,-,N/A,,Clear,180,2012-12-04 19:55:00
3:15 PM,71.6,53.6,53,30.17,10.0,South,9.2,-,N/A,,Clear,170,2012-12-04 20:15:00
3:35 PM,69.8,53.6,56,30.17,10.0,South,6.9,-,N/A,,Clear,180,2012-12-04 20:35:00
3:56 PM,68.0,53.6,60,30.17,10.0,South,6.9,-,N/A,,Clear,190,2012-12-04 20:56:00
4:15 PM,66.2,53.6,64,30.17,10.0,South,4.6,-,N/A,,Clear,170,2012-12-04 21:15:00
4:36 PM,64.4,53.6,68,30.17,10.0,South,5.8,-,N/A,,Clear,170,2012-12-04 21:36:00
4:55 PM,62.6,53.6,72,30.17,10.0,South,5.8,-,N/A,,Clear,170,2012-12-04 21:55:00
5:16 PM,62.6,51.8,68,30.17,10.0,South,6.9,-,N/A,,Clear,170,2012-12-04 22:16:00
5:35 PM,60.8,51.8,72,30.17,10.0,South,6.9,-,N/A,,Clear,170,2012-12-04 22:35:00
5:55 PM,60.8,51.8,72,30.17,10.0,South,8.1,-,N/A,,Clear,170,2012-12-04 22:55:00
6:15 PM,60.8,51.8,72,30.17,10.0,South,6.9,-,N/A,,Clear,170,2012-12-04 23:15:00
6:35 PM,60.8,51.8,72,30.17,10.0,South,9.2,-,N/A,,Clear,170,2012-12-04 23:35:00
6:55 PM,59.0,51.8,77,30.16,10.0,South,9.2,-,N/A,,Clear,180,2012-12-04 23:55:00
7:15 PM,59.0,51.8,77,30.16,10.0,South,6.9,-,N/A,,Clear,170,2012-12-05 00:15:00
7:35 PM,59.0,51.8,77,30.16,10.0,South,8.1,-,N/A,,Clear,180,2012-12-05 00:35:00
7:55 PM,59.0,51.8,77,30.16,10.0,South,6.9,-,N/A,,Clear,180,2012-12-05 00:55:00
8:15 PM,59.0,51.8,77,30.15,10.0,South,8.1,-,N/A,,Clear,190,2012-12-05 01:15:00
8:35 PM,60.8,51.8,72,30.15,10.0,SSW,8.1,-,N/A,,Clear,200,2012-12-05 01:35:00
8:55 PM,60.8,51.8,72,30.15,10.0,SSW,8.1,-,N/A,,Clear,200,2012-12-05 01:55:00
9:15 PM,60.8,51.8,72,30.14,10.0,SSW,10.4,-,N/A,,Clear,210,2012-12-05 02:15:00
9:35 PM,62.6,51.8,68,30.14,10.0,SSW,9.2,-,N/A,,Clear,210,2012-12-05 02:35:00
9:55 PM,60.8,51.8,72,30.14,10.0,South,5.8,-,N/A,,Clear,190,2012-12-05 02:55:00
10:15 PM,62.6,51.8,68,30.14,10.0,SSW,6.9,-,N/A,,Clear,200,2012-12-05 03:15:00
10:35 PM,60.8,51.8,72,30.14,10.0,SSW,8.1,-,N/A,,Clear,210,2012-12-05 03:35:00
10:55 PM,62.6,51.8,68,30.13,10.0,SSW,9.2,-,N/A,,Clear,210,2012-12-05 03:55:00
11:15 PM,62.6,53.6,72,30.13,10.0,SSW,11.5,17.3,N/A,,Clear,210,2012-12-05 04:15:00
11:35 PM,62.6,53.6,72,30.12,10.0,SW,10.4,18.4,N/A,,Clear,220,2012-12-05 04:35:00